Regional Weather Roundup
Issued by NWS

Home | Current Version | Previous Version | Graphics & Text | Print | Product List | Glossary Off
Versions: 1 2 3 4 5 6 7 8 9 10 11 12 13 14 15 16 17 18 19 20 21 22 23 24 25 26 27 28 29 30 31 32 33 34 35 36 37 38 39 40 41 42 43 44 45 46 47 48 49 50

000
ASUS43 KDTX 300210
RWRMI
MICHIGAN HOURLY REGIONAL WEATHER ROUNDUP
NATIONAL WEATHER SERVICE DETROIT/PONTIAC MI
1000 PM EDT WED JUL 29 2015

NOTE: "FAIR" INDICATES FEW OR NO CLOUDS BELOW 12,000 FEET WITH NO
SIGNIFICANT WEATHER AND/OR OBSTRUCTION TO VISIBILITY.

MIZ047>049-052>055-059>063-066>070-074>076-081>083-300300-
SOUTHEAST LOWER MICHIGAN

CITY           SKY/WX    TMP DP  RH WIND       PRES   REMARKS
ADRIAN         CLEAR     73  60  63 NW8       29.95R
ALMA           CLEAR     71  55  56 SW5       29.91S
ANN ARBOR      CLEAR     73  60  63 W9        29.93R
BAD AXE        CLEAR     72  63  74 W7        29.87R
CARO           CLEAR     74  58  57 W8G16     29.88R
DETROIT CITY   CLEAR     80  71  74 W10       29.89R
DETROIT        PTCLDY    79  69  71 W9G17     29.91R
FLINT          CLEAR     74  56  53 W9        29.91R
GROSSE ILE     PTCLDY    79  73  83 W6        29.89R
HILLSDALE      CLEAR     70  59  67 W5        29.98R
HOWELL         CLEAR     71  55  57 W5        29.94R

CITY           SKY/WX    TMP DP  RH WIND       PRES   REMARKS
JACKSON        CLEAR     71  57  61 W9        29.96R
LAMBERTVILLE   CLEAR     78  70  76 NW5       29.93R
LANSING        CLEAR     73  56  54 W7        29.94R
LAPEER         FAIR      73  58  59 W6        29.90R
MASON          CLEAR     70  56  61 CALM      29.94S
MONROE         CLEAR     77  74  91 W7        29.90R
MT. CLEMENS    CLEAR     78  75  90 W8        29.86R
PONTIAC        PTCLDY    74  58  57 W10       29.91R
PORT HOPE        N/A     76  61  59 VRB6      29.83R
PORT HURON     CLEAR     75  73  94 SW3       29.87R
TRI CITIES     CLEAR     73  55  53 SW8       29.89R
MIDLAND        FAIR      74  53  48 SW3       29.88R
TROY           CLEAR     76  67  72 MISG      29.92R
SAGINAW HB     CLEAR     73  57  56 SW6       29.89R
$$
MIZ043>046-050>051-056>058-064>065-071>073-077>080-300300-
SOUTHWEST LOWER MICHIGAN

CITY           SKY/WX    TMP DP  RH WIND       PRES   REMARKS
BATTLE CREEK   CLEAR     71  58  63 W9        29.97R
BENTON HARBOR  CLEAR     75  61  61 W14       29.97R
BIG RAPIDS     CLEAR     70  53  54 SW6       29.91R
COLDWATER      CLEAR     69  57  67 SW3       29.97R
FREMONT        FAIR      69  55  59 SW6       29.92R
HOLLAND        CLEAR     74  61  63 W8        29.96R
GRAND RAPIDS   PTCLDY    74  56  53 W9        29.94R
IONIA          FAIR      71  55  57 SW6       29.92S
KALAMAZOO      CLEAR     73  57  57 W6        29.97R
LUDINGTON      CLEAR     76  65  67 W3        29.90R
MARSHALL       CLEAR     68  58  69 SW3       29.96R
MOUNT PLEASANT CLEAR     75  54  47 SW6       29.89S
MUSKEGON       PTCLDY    74  57  55 W8        29.93R
SOUTH HAVEN    CLEAR     75  60  61 W8        29.97R
$$
MIZ016>042-300300-
NORTHERN LOWER MICHIGAN

CITY           SKY/WX    TMP DP  RH WIND       PRES   REMARKS
ALPENA         CLEAR     77  51  40 SW5       29.82R
BEAVER ISLAND  CLOUDY    74  56  53 W7        29.82R
BELLAIRE       CLOUDY    78  54  43 SW3       29.84R
CADILLAC       CLEAR     69  55  60 SW5       29.91R
CHARLEVOIX     CLOUDY    74  60  61 W15       29.86R
FRANKFORT      CLOUDY    74  62  67 NW12G17   29.87R
GAYLORD        CLEAR     73  51  46 SW10      29.86R
GRAYLING       CLEAR     72  52  49 CALM      29.87S
HARBOR SPRINGS CLOUDY    74  61  63 W12G18    29.82R
HOUGHTON LAKE  CLEAR     76  55  48 W9        29.88R
MANISTEE       CLEAR     72  57  60 W7        29.89R
OSCODA         CLEAR     77  50  38 W9        29.84R
PELLSTON       MOCLDY    76  57  51 W15G22    29.81R
ROGERS CITY    CLEAR     74  53  48 SW6       29.81R
TRAVERSE CITY  PTCLDY    77  54  44 SW7       29.84R
$$
MIZ007>008-015-300300-
EASTERN UPPER MICHIGAN

CITY           SKY/WX    TMP DP  RH WIND       PRES   REMARKS
KINROSS        CLOUDY    66  54  63 N5        29.80S
MACKINAC ISLAN CLOUDY    71  61  71 W9        29.80R
MUNISING         N/A     74  56  53 SW3       29.79S
$$
MIZ004>006-011>014-085-300300-
CENTRAL UPPER MICHIGAN

CITY           SKY/WX    TMP DP  RH WIND       PRES   REMARKS
MANISTIQUE     CLOUDY    73  55  53 W3        29.81S
ESCANABA       CLOUDY    75  55  50 SW5       29.81S
MENOMINEE      CLOUDY    73  54  49 W3        29.84S
SAWYER-GWINN   CLOUDY    72  55  56 W7        29.82S
$$
MIZ001>003-009>011-084-300300-
WESTERN UPPER MICHIGAN

CITY           SKY/WX    TMP DP  RH WIND       PRES   REMARKS
IRON MOUNTAIN  CLOUDY    74  54  49 SW8       29.83S
HOUGHTON       MOCLDY    70  55  59 W14       29.75R
COPPER HARBOR    N/A     72  55  55 NW14G23   29.71S
IRONWOOD       MOCLDY    70  55  60 SW8       29.80R
$$

ABBREVIATIONS USED IN REMARKS
   TC - TEMPERATURE IN CELSIUS
  WCI - WIND CHILL INDEX
   HX - HEAT INDEX
  VSB - VISIBILITY




USA.gov is the U.S. government's official web portal to all federal, state and local government web resources and services.